Location: Shannon
(40.5500°S, 175.4167°E)
Time: 20:05:00
(UTC+00:00)

Cosmos 1420 Rocket - Pass Details

Date: 17 November 2025
Orbit: 750 x 776 km, 74.0° (Epoch: 14 December)

Event Time Altitude Azimuth Distance (km) Brightness Sun altitude
Rises 14:31:19 0° 204° (SSW) 3,240 7.6 -21.1°
Reaches altitude 10° 14:33:43 10° 208° (SSW) 2,310 6.8 -20.8°
Maximum altitude 14:38:50 56° 284° (WNW) 904 4.0 -20.2°
Enters shadow 14:40:27 40° 339° (NNW) 1,125 4.4 -20.0°
